Home   Weather   Hamilton   Past weeks

Flag for Bermuda Past Weather in Hamilton, Bermuda — Yesterday and Last 2 Weeks

Now
64 °F

Partly sunny.


Feels Like: 64 °F
Forecast: N/A
Wind: 5 mph from Southeast

Location: Bermuda

Current Time: Feb 23, 2017 at 4:48:51 pm

Latest Report: Feb 23, 2017 at 3:55 pm


Visibility: N/A

Pressure: 30.09 "Hg

Humidity: 56%

Dew Point: 48 °F

Location of HamiltonLocation

Past Weather in Hamilton — Graph

°F

Hamilton Temperature Yesterday

Maximum temperature yesterday: 64 °F (at 12:55 pm)
Minimum temperature yesterday: 59 °F (at 12:55 am)
Average temperature yesterday: 62 °F

High & Low Weather Summary for the Past Weeks

 TemperatureHumidityPressure
High73 °F (Feb 8, 2:55 pm)94% (Feb 9, 6:55 am)30.36 "Hg (Feb 9, 6:55 am)
Low55 °F (Feb 10, 5:55 pm)48% (Feb 11, 3:55 am)29.59 "Hg (Feb 16, 12:16 pm)
Average64 °F69%29.96 "Hg
* Reported Feb 8 2:55 pm — Feb 23 2:55 pm, Hamilton, Weather by CustomWeather, © 2017

Note: Actual official high and low records may vary slightly from our data, if they occured in-between our weather recording intervals... More about our weather records

Advertising

Hamilton Weather History for the Previous 24 Hours

Scroll right to see more
 ConditionsComfort  
Time TempWeatherWind HumidityBarometerVisibility
2:55 pm
Thu, Feb 23
66 °FBroken clouds.6 mph52%30.09 "HgN/A
1:55 pm64 °FPartly sunny.6 mph56%30.09 "HgN/A
12:55 pm64 °FBroken clouds.7 mph56%30.09 "HgN/A
11:55 am66 °FBroken clouds.8 mph52%30.12 "HgN/A
10:55 am64 °FBroken clouds.6 mph52%30.12 "HgN/A
9:55 am64 °FBroken clouds.6 mph52%30.12 "HgN/A
8:55 am63 °FBroken clouds.5 mph56%30.12 "HgN/A
7:55 am63 °FBroken clouds.5 mph59%30.09 "HgN/A
6:55 am61 °FBroken clouds.3 mph59%30.07 "HgN/A
5:55 am61 °FPassing clouds.3 mph63%30.07 "HgN/A
4:55 am61 °FPassing clouds.3 mph59%30.04 "HgN/A
3:55 am61 °FPassing clouds.6 mph59%30.04 "HgN/A
2:55 am61 °FPassing clouds.6 mph55%30.04 "HgN/A
1:55 am61 °FPassing clouds.10 mph59%30.04 "HgN/A
12:55 am61 °FPassing clouds.8 mph59%30.04 "HgN/A
11:55 pm
Wed, Feb 22
63 °FPassing clouds.9 mph56%30.04 "HgN/A
10:55 pm63 °FPassing clouds.10 mph59%30.04 "HgN/A
9:55 pm63 °FPartly cloudy.9 mph68%30.01 "HgN/A
8:55 pm63 °FPartly cloudy.10 mph64%30.01 "HgN/A
7:55 pm63 °FPartly cloudy.12 mph64%29.98 "HgN/A
6:55 pm63 °FPassing clouds.14 mph59%29.98 "HgN/A
5:55 pm63 °FPartly sunny.16 mph59%29.95 "HgN/A
4:55 pm63 °FPartly sunny.16 mph59%29.95 "HgN/A
Weather by CustomWeather, © 2017

See weather overviewHow to use our weather pages